| time (UTC) | temp F | wind direction | speed knots | gust knots | rain 1hr in | rain 24hr in | rain mn in | humidity % | barometer mb |
| 20260503225003 | 56 | 207 | 3.5 | 7.0 | 0.00 | 0.12 | 0.00 | 63 | 1011.3 |
| 20260503224003 | 56 | 210 | 4.3 | 7.0 | 0.00 | 0.12 | 0.00 | 63 | 1011.5 |
| 20260503223003 | 57 | 213 | 4.3 | 7.0 | 0.00 | 0.12 | 0.00 | 62 | 1011.4 |
| 20260503222003 | 57 | 210 | 3.5 | 7.0 | 0.00 | 0.12 | 0.00 | 63 | 1011.8 |
| 20260503221003 | 56 | 206 | 2.6 | 3.5 | 0.00 | 0.12 | 0.00 | 66 | 1011.7 |
| 20260503220003 | 57 | 201 | 2.6 | 5.2 | 0.00 | 0.12 | 0.00 | 66 | 1011.7 |
| 20260503215003 | 57 | 208 | 3.5 | 5.2 | 0.00 | 0.12 | 0.12 | 64 | 1011.6 |
| 20260503214003 | 58 | 215 | 4.3 | 7.0 | 0.00 | 0.12 | 0.12 | 61 | 1011.5 |
| 20260503213003 | 58 | 220 | 3.5 | 7.0 | 0.00 | 0.12 | 0.12 | 60 | 1011.6 |
| 20260503212003 | 58 | 227 | 3.5 | 7.0 | 0.00 | 0.12 | 0.12 | 64 | 1011.3 |
| 20260503211003 | 58 | 225 | 2.6 | 5.2 | 0.00 | 0.12 | 0.12 | 65 | 1011.5 |
| 20260503210003 | 58 | 220 | 1.7 | 3.5 | 0.00 | 0.12 | 0.12 | 64 | 1011.3 |
| 20260503205003 | 58 | 231 | 3.5 | 6.1 | 0.00 | 0.12 | 0.12 | 63 | 1011.3 |
| 20260503204003 | 58 | 236 | 2.6 | 6.1 | 0.00 | 0.12 | 0.12 | 62 | 1011.2 |
| 20260503203003 | 58 | 225 | 2.6 | 5.2 | 0.00 | 0.12 | 0.12 | 63 | 1010.9 |
| 20260503202003 | 58 | 249 | 3.5 | 6.1 | 0.00 | 0.12 | 0.12 | 62 | 1010.9 |
| 20260503201003 | 58 | 233 | 3.5 | 7.0 | 0.00 | 0.12 | 0.12 | 62 | 1010.8 |
| 20260503200003 | 59 | 231 | 3.5 | 7.0 | 0.00 | 0.12 | 0.12 | 61 | 1010.7 |
| 20260503195003 | 59 | 233 | 4.3 | 8.7 | 0.00 | 0.12 | 0.12 | 60 | 1010.5 |
| 20260503194003 | 59 | 236 | 6.1 | 8.7 | 0.00 | 0.12 | 0.12 | 59 | 1010.3 |
| 20260503193003 | 59 | 231 | 5.2 | 8.7 | 0.00 | 0.12 | 0.12 | 59 | 1010.2 |
| 20260503192003 | 59 | 224 | 5.2 | 8.7 | 0.00 | 0.12 | 0.12 | 59 | 1010.5 |
| 20260503191003 | 60 | 226 | 6.1 | 11.3 | 0.00 | 0.12 | 0.12 | 59 | 1010.1 |
| 20260503190003 | 60 | 225 | 5.2 | 9.6 | 0.00 | 0.12 | 0.12 | 59 | 1010.2 |
| 20260503185003 | 60 | 220 | 5.2 | 9.6 | 0.00 | 0.12 | 0.12 | 59 | 1010.0 |
| 20260503184003 | 60 | 224 | 5.2 | 8.7 | 0.00 | 0.12 | 0.12 | 58 | 1010.1 |
| 20260503183003 | 61 | 233 | 7.0 | 13.0 | 0.00 | 0.12 | 0.12 | 56 | 1010.0 |
| 20260503182003 | 61 | 238 | 7.8 | 13.0 | 0.00 | 0.12 | 0.12 | 56 | 1009.8 |
| 20260503181003 | 62 | 228 | 7.8 | 13.9 | 0.00 | 0.12 | 0.12 | 56 | 1010.1 |
| 20260503180003 | 62 | 225 | 7.0 | 14.8 | 0.00 | 0.12 | 0.12 | 56 | 1010.0 |
| 20260503175003 | 62 | 233 | 7.0 | 14.8 | 0.00 | 0.12 | 0.12 | 55 | 1010.0 |
| 20260503174003 | 62 | 242 | 7.8 | 14.8 | 0.00 | 0.12 | 0.12 | 54 | 1009.8 |
| 20260503173003 | 62 | 238 | 6.1 | 12.2 | 0.00 | 0.12 | 0.12 | 56 | 1009.8 |
| 20260503172003 | 62 | 241 | 8.7 | 13.0 | 0.00 | 0.12 | 0.12 | 54 | 1009.7 |
| 20260503171003 | 62 | 245 | 7.8 | 13.0 | 0.00 | 0.12 | 0.12 | 55 | 1009.8 |
| 20260503151003 | 65 | 237 | 9.6 | 16.5 | 0.00 | 0.12 | 0.12 | 53 | 1009.8 |
| 20260503131003 | 63 | 224 | 11.3 | 20.0 | 0.00 | 0.65 | 0.12 | 57 | 1010.7 |
| 20260503081003 | 56 | 191 | 6.1 | 9.6 | 0.01 | 0.66 | 0.12 | 90 | 1012.4 |
| 20260503072003 | 53 | 154 | 5.2 | 11.3 | 0.11 | 0.66 | 0.12 | 91 | 1012.0 |
| 20260503071003 | 53 | 167 | 7.0 | 12.2 | 0.10 | 0.65 | 0.11 | 92 | 1012.1 |
| 20260503055003 | 54 | 122 | 7.0 | 11.3 | 0.00 | 0.55 | 0.01 | 96 | 1011.7 |
| 20260503054003 | 53 | 133 | 7.0 | 11.3 | 0.00 | 0.55 | 0.01 | 96 | 1011.9 |
| 20260503053003 | 53 | 132 | 6.1 | 11.3 | 0.00 | 0.55 | 0.01 | 96 | 1011.9 |
| 20260503052003 | 53 | 132 | 7.0 | 11.3 | 0.00 | 0.55 | 0.01 | 96 | 1011.8 |
| 20260503051003 | 53 | 124 | 6.1 | 11.3 | 0.00 | 0.55 | 0.01 | 95 | 1011.8 |
| 20260503050003 | 53 | 130 | 7.0 | 9.6 | 0.00 | 0.55 | 0.01 | 95 | 1011.7 |
| 20260503045003 | 53 | 131 | 6.1 | 11.3 | 0.00 | 0.55 | 0.01 | 95 | 1011.8 |
| 20260503044003 | 53 | 130 | 6.1 | 9.6 | 0.00 | 0.55 | 0.01 | 95 | 1012.0 |
| 20260503043003 | 53 | 132 | 5.2 | 11.3 | 0.00 | 0.55 | 0.01 | 95 | 1012.0 |
| 20260503042003 | 53 | 123 | 6.1 | 8.7 | 0.00 | 0.55 | 0.01 | 95 | 1012.1 |
| 20260503041003 | 53 | 129 | 5.2 | 9.6 | 0.00 | 0.55 | 0.01 | 95 | 1012.1 |
| 20260503040003 | 53 | 133 | 6.1 | 11.3 | 0.00 | 0.55 | 0.01 | 94 | 1012.2 |
| 20260503035003 | 53 | 131 | 6.1 | 9.6 | 0.00 | 0.55 | 0.01 | 94 | 1012.4 |
| 20260503034003 | 53 | 130 | 6.1 | 9.6 | 0.00 | 0.55 | 0.01 | 93 | 1012.6 |
| 20260503033003 | 53 | 133 | 6.1 | 9.6 | 0.00 | 0.55 | 0.01 | 92 | 1012.8 |
| 20260503032003 | 53 | 129 | 6.1 | 11.3 | 0.00 | 0.55 | 0.01 | 91 | 1012.7 |
| 20260503031003 | 54 | 123 | 6.1 | 9.6 | 0.00 | 0.55 | 0.01 | 90 | 1012.8 |
| 20260503030003 | 54 | 130 | 5.2 | 9.6 | 0.00 | 0.55 | 0.01 | 90 | 1012.7 |
| 20260503025003 | 54 | 123 | 6.1 | 11.3 | 0.00 | 0.55 | 0.01 | 89 | 1012.6 |
| 20260503024003 | 54 | 124 | 5.2 | 7.8 | 0.00 | 0.55 | 0.01 | 89 | 1012.8 |
| 20260503023003 | 54 | 135 | 4.3 | 8.7 | 0.00 | 0.55 | 0.01 | 87 | 1012.8 |
| 20260503022003 | 54 | 137 | 5.2 | 7.8 | 0.00 | 0.55 | 0.01 | 86 | 1012.8 |
| 20260503021003 | 54 | 126 | 4.3 | 7.0 | 0.00 | 0.55 | 0.01 | 85 | 1012.9 |
| 20260503020003 | 54 | 132 | 3.5 | 7.0 | 0.00 | 0.55 | 0.01 | 85 | 1012.9 |
| 20260503015003 | 55 | 132 | 4.3 | 8.7 | 0.00 | 0.55 | 0.01 | 83 | 1013.0 |
| 20260503014003 | 55 | 121 | 3.5 | 7.0 | 0.00 | 0.55 | 0.01 | 83 | 1013.1 |
| 20260503013003 | 54 | 124 | 4.3 | 7.8 | 0.00 | 0.55 | 0.01 | 84 | 1013.0 |
| 20260503012003 | 54 | 116 | 3.5 | 6.1 | 0.00 | 0.55 | 0.01 | 86 | 1012.9 |
| 20260503011003 | 54 | 117 | 3.5 | 6.1 | 0.00 | 0.55 | 0.01 | 86 | 1013.1 |
| 20260503010003 | 54 | 113 | 3.5 | 5.2 | 0.00 | 0.55 | 0.01 | 86 | 1013.3 |
| 20260503005003 | 54 | 116 | 3.5 | 6.1 | 0.00 | 0.55 | 0.01 | 85 | 1013.3 |
| 20260503004003 | 54 | 120 | 3.5 | 6.1 | 0.00 | 0.55 | 0.01 | 86 | 1013.6 |
| 20260503003003 | 54 | 119 | 2.6 | 5.2 | 0.00 | 0.55 | 0.01 | 87 | 1013.3 |
| 20260503002003 | 55 | 144 | 1.7 | 2.6 | 0.01 | 0.55 | 0.01 | 85 | 1013.4 |
| 20260503001003 | 55 | 131 | 0.9 | 2.6 | 0.01 | 0.55 | 0.01 | 84 | 1013.8 |
| 20260503000003 | 54 | 125 | 2.6 | 3.5 | 0.01 | 0.55 | 0.01 | 84 | 1013.8 |
| 20260502235003 | 55 | 122 | 2.6 | 6.1 | 0.01 | 0.55 | 0.01 | 84 | 1013.9 |
| 20260502234003 | 56 | 174 | 0.9 | 3.5 | 0.01 | 0.55 | 0.01 | 79 | 1014.0 |
| 20260502233003 | 55 | 119 | 0.0 | 1.7 | 0.01 | 0.55 | 0.01 | 83 | 1014.0 |
| 20260502232003 | 56 | 131 | 0.9 | 2.6 | 0.00 | 0.54 | 0.00 | 80 | 1013.8 |
| 20260502231003 | 56 | 134 | 0.0 | 0.9 | 0.00 | 0.54 | 0.00 | 79 | 1014.0 |
| 20260502230003 | 57 | 262 | 0.9 | 2.6 | 0.00 | 0.54 | 0.00 | 78 | 1013.9 |